7 * 24
多渠道服务支持
STARLINK-35073是美国太空探索技术公司(SpaceX)于2025年8月30日发射的星链(Starlink)低轨卫星,隶属于Starlink第二代星座组网任务,属于SpaceX推进全球卫星互联网覆盖的组网卫星之一,运行于近地轨道,将为全球偏远、基础设施缺失地区提供高速低延迟宽带互联网服务,帮助星链进一步完善星座容量与覆盖能力,支撑海事、航空等移动场景及应急通信服务拓展,推进星链商业化落地。
美国
(US)
| 数据来源 | 国际轨道数据 |
| 星历时间: | 2026-03-13T13:41:06+0800 1天前 查看轨道信息 |
| 半长轴: | 6927.638km |
| 偏心率: | 0.0002672 |
| 轨道倾角: | 97.603° |
| 近地点辐角 | 87.453° |
| 升交点赤经 | 305.029° |
| 平近点角 | 272.700° |
| 近地点: | 547.649km |
| 远地点: | 551.353km |
| 周期: | 95.640分钟 |
| 每日圈数: | 15.056536 |